TimeEST,TemperatureF,Dew PointF,Humidity,Sea Level PressureIn,VisibilityMPH,Wind Direction,Wind SpeedMPH,Gust SpeedMPH,PrecipitationIn,Events,Conditions,WindDirDegrees,DateUTC
12:53 AM,28.9,1.0,30,30.36,10.0,West,6.9,-,N/A,,Overcast,260,2013-01-23 05:53:00
1:53 AM,28.9,-0.9,28,30.36,10.0,WSW,5.8,-,N/A,,Overcast,250,2013-01-23 06:53:00
2:53 AM,28.0,-0.9,29,30.36,10.0,West,5.8,-,N/A,,Overcast,270,2013-01-23 07:53:00
3:53 AM,28.0,1.0,31,30.36,10.0,SW,3.5,-,N/A,,Overcast,230,2013-01-23 08:53:00
4:53 AM,28.0,1.9,33,30.35,10.0,Calm,Calm,-,N/A,,Scattered Clouds,0,2013-01-23 09:53:00
5:53 AM,28.0,1.9,33,30.36,10.0,Calm,Calm,-,N/A,,Partly Cloudy,0,2013-01-23 10:53:00
6:53 AM,26.1,6.1,43,30.37,10.0,West,3.5,-,N/A,,Scattered Clouds,270,2013-01-23 11:53:00
7:53 AM,24.1,10.0,55,30.38,10.0,Calm,Calm,-,N/A,,Mostly Cloudy,0,2013-01-23 12:53:00
8:53 AM,28.0,9.0,45,30.37,10.0,Calm,Calm,-,N/A,,Partly Cloudy,0,2013-01-23 13:53:00
9:53 AM,30.9,7.0,37,30.39,10.0,SW,4.6,-,N/A,,Clear,220,2013-01-23 14:53:00
10:53 AM,35.1,10.0,35,30.38,10.0,SW,6.9,-,N/A,,Clear,230,2013-01-23 15:53:00
11:53 AM,37.9,14.0,38,30.35,10.0,SSW,6.9,-,N/A,,Scattered Clouds,200,2013-01-23 16:53:00
12:53 PM,39.0,15.1,38,30.29,10.0,SW,5.8,-,N/A,,Partly Cloudy,230,2013-01-23 17:53:00
1:53 PM,41.0,15.1,35,30.26,10.0,West,8.1,19.6,N/A,,Partly Cloudy,270,2013-01-23 18:53:00
2:53 PM,43.0,17.1,35,30.24,10.0,WSW,9.2,-,N/A,,Clear,240,2013-01-23 19:53:00
3:53 PM,44.1,18.0,35,30.21,10.0,SSW,10.4,-,N/A,,Clear,210,2013-01-23 20:53:00
4:53 PM,44.1,19.9,38,30.19,10.0,SW,16.1,19.6,N/A,,Clear,220,2013-01-23 21:53:00
5:53 PM,39.0,19.9,46,30.19,10.0,SW,9.2,-,N/A,,Clear,220,2013-01-23 22:53:00
6:53 PM,36.0,19.9,52,30.18,10.0,SSW,6.9,-,N/A,,Clear,210,2013-01-23 23:53:00
7:53 PM,37.0,21.0,52,30.17,10.0,WSW,5.8,-,N/A,,Clear,240,2013-01-24 00:53:00
8:53 PM,37.0,24.1,59,30.15,10.0,SW,10.4,-,N/A,,Clear,220,2013-01-24 01:53:00
9:53 PM,36.0,25.0,64,30.15,10.0,WSW,8.1,-,N/A,,Clear,240,2013-01-24 02:53:00
10:53 PM,37.9,26.1,62,30.14,10.0,WSW,10.4,-,N/A,,Partly Cloudy,240,2013-01-24 03:53:00
11:53 PM,41.0,26.1,55,30.16,10.0,West,9.2,-,N/A,,Overcast,260,2013-01-24 04:53:00